[[{"header":{"parameterUnit":"m.s-1","parameterCategory":1,"la1":30.2991,"la2":30.254,"lo1":-89.0895,"lo2":-89.0444,"dy":0.0017,"dx":0.0017,"nx":28,"ny":28,"refTime":"2024-05-12T03:00:00:Z","depth":0,"parameterNumber":2,"parameterNumberName":"U-component_of_WINDS"},"data":[0,0,0,0,0,0,0,0,0,0,0,0,0,0,0,0,0,0,0,0,0,0,0,0,0,0,0,0,0,0,0,0,0,0,0,0,0,0,0,0,0,0,0,0,0,0,0,0,0,0,0,0,0,0,0,0,0,0,0.2163,0.2163,0,0.2156,0.2156,0.2156,0.2137,0.2136,0.2136,0.2136,0.2129,0.2129,0.2129,0,0,0,0,0,0,0,0,0,0,0,0,0,0.2161,0.2161,0.2163,0.2163,0.2163,0.2156,0.2156,0.2156,0.2137,0.2136,0.2136,0.2135,0.2129,0.2129,0.2129,0,0,0,0,0,0,0,0,0,0,0,0,0,0.2159,0.2161,0.2163,0.2153,0.2152,0.2156,0.2156,0.2156,0.2137,0.2136,0.2136,0.2135,0.2129,0.2129,0.2129,0.2144,0,0,0.213,0.2131,0,0,0,0,0,0,0,0,0.2159,0.2159,0.2154,0.2154,0.2152,0.2147,0.2153,0.2152,0.2137,0.2143,0.2136,0.2135,0.2135,0.2135,0.2135,0.2144,0.2143,0.213,0.2131,0.2131,0.2131,0,0,0,0,0,0,0,0.2159,0.2159,0.2161,0.2154,0.2153,0.2149,0.2148,0.2153,0.2143,0.2142,0.2141,0.214,0.2135,0.2135,0.2135,0.2143,0.213,0.2131,0.2131,0.2131,0.2164,0.2164,0,0,0,0,0,0,0.2161,0.2159,0.2161,0.216,0.2154,0.2149,0.2148,0.2149,0.2143,0.2141,0.2141,0.2139,0.2135,0.2135,0.2135,0.2152,0.2131,0.2131,0.2131,0.2163,0.2164,0.2165,0,0,0,0,0,0,0.2161,0.2161,0.2161,0.2159,0.2159,0.215,0.2151,0.2149,0.215,0.2141,0.214,0.2143,0.2134,0.2134,0.2142,0.2151,0.2131,0.2132,0.2162,0.2163,0.2164,0.2185,0,0,0,0,0,0,0.2161,0.2161,0.2166,0.216,0.2159,0.2168,0.2152,0.215,0.215,0.2148,0.2143,0.2141,0.2134,0.2141,0.2142,0.2151,0.2132,0.2161,0.2163,0.2164,0.2184,0.2187,0.219,0,0,0,0,0,0.2161,0.2173,0.2167,0.2167,0.2166,0.2169,0.2169,0.216,0.2151,0.2156,0.2151,0.2142,0.215,0.2142,0.2143,0.2152,0.2161,0.2162,0.2164,0.2182,0.2186,0.219,0,0,0,0,0,0,0.2181,0.2172,0.2165,0.2175,0.2173,0.2166,0.2172,0.2164,0.2164,0.2162,0.2151,0.215,0.2159,0.2157,0.2148,0.2166,0.2154,0.2156,0.2168,0.2171,0.2174,0.2175,0.2132,0,0,0,0,0,0.2186,0.2189,0.2181,0.2191,0.219,0.2182,0.2183,0.2176,0.2173,0.2172,0.2167,0.2165,0.2168,0.2169,0.2171,0.2183,0.2182,0.219,0.2193,0.2195,0.2197,0.2204,0.2207,0.217,0.217,0.217,0,0,0.2198,0.2193,0.2196,0.2195,0.2193,0.2196,0.2181,0.2185,0.2188,0.2173,0.218,0.2176,0.2173,0.2184,0.2188,0.2181,0.2207,0.2197,0.2199,0.22,0.2206,0.2209,0.2212,0.2171,0.217,0.217,0,0,0.2221,0.2218,0.2226,0.2224,0.222,0.2214,0.2216,0.221,0.2207,0.2214,0.2202,0.2206,0.221,0.2208,0.2208,0.2231,0.2222,0.2231,0.2247,0.2253,0.2256,0.2259,0.2267,0.227,0.2233,0.2233,0.2233,0,0.2236,0.2241,0.2231,0.2236,0.2236,0.2222,0.223,0.2229,0.2226,0.2227,0.2219,0.2224,0.2221,0.2231,0.2237,0.2237,0.2239,0.2232,0.2257,0.2259,0.2261,0.2269,0.2272,0.2234,0.2234,0.2234,0.2234,0,0.226,0.2264,0.227,0.2268,0.2269,0.2275,0.2266,0.2269,0.2262,0.2257,0.2264,0.226,0.226,0.2262,0.2256,0.2271,0.2267,0.2259,0.2246,0.2266,0.2274,0.2276,0.2236,0.2236,0.2235,0.2235,0,0,0.2295,0.2287,0.229,0.2289,0.2284,0.2287,0.2293,0.2293,0.2295,0.2294,0.2299,0.2303,0.2295,0.2295,0.2288,0.2294,0.2312,0.2284,0.2284,0.229,0.233,0.2336,0.234,0.2306,0.2307,0.2307,0.233,0,0.2317,0.2327,0.2318,0.233,0.2334,0.2321,0.2326,0.2324,0.2319,0.2322,0.2317,0.232,0.2309,0.2309,0.2314,0.2309,0.232,0.2307,0.2311,0.2312,0.2313,0.2344,0.2351,0.2372,0.2333,0.2333,0.2333,0,0.2344,0.2344,0.2356,0.2351,0.2352,0.2357,0.2357,0.2359,0.2357,0.2353,0.2353,0.2344,0.235,0.2338,0.2346,0.2338,0.2339,0.2337,0.2337,0.2337,0.2324,0.2345,0.2379,0.2382,0.2338,0.2337,0.2337,0,0.2369,0.2372,0.238,0.2379,0.2373,0.2377,0.2374,0.2371,0.2372,0.2372,0.2372,0.2373,0.2374,0.2375,0.2367,0.2358,0.2376,0.2363,0.2373,0.2374,0.2378,0.2378,0.2412,0.2379,0.2378,0.2378,0.2378,0,0.2395,0.2403,0.2391,0.2395,0.2404,0.2394,0.2403,0.2399,0.2397,0.2401,0.2389,0.2393,0.2383,0.2386,0.238,0.2388,0.2388,0.2385,0.2384,0.2386,0.2387,0.2387,0.2385,0.2379,0.2379,0.2379,0.2379,0,0.2424,0.2416,0.2424,0.2417,0.2416,0.2423,0.2417,0.2421,0.2416,0.2421,0.2422,0.2414,0.2417,0.2409,0.2411,0.2407,0.2419,0.2415,0.242,0.2418,0.2429,0.2428,0.2465,0.247,0.2433,0.2434,0.2434,0,0.244,0.2446,0.2441,0.2442,0.2441,0.2444,0.2445,0.2435,0.2437,0.2434,0.2439,0.2441,0.2442,0.2448,0.2442,0.2443,0.2439,0.2452,0.2439,0.2442,0.244,0.2439,0.244,0.2455,0.2455,0.2456,0.2456,0,0.2471,0.2467,0.2469,0.2469,0.2471,0.247,0.247,0.2472,0.2462,0.2464,0.2467,0.2468,0.247,0.2472,0.2472,0.247,0.2462,0.246,0.2463,0.2465,0.2468,0.2467,0.2427,0.2459,0.2459,0.2459,0.2459,0.2458,0.2494,0.2499,0.2496,0.2498,0.2497,0.2496,0.25,0.2495,0.2498,0.2498,0.2493,0.2497,0.2494,0.2494,0.2493,0.2496,0.249,0.2494,0.2495,0.2496,0.2497,0.2468,0.2496,0.2496,0.2496,0.2496,0.2496,0,0.2524,0.2522,0.2524,0.2523,0.2525,0.2517,0.2516,0.2518,0.2522,0.252,0.2521,0.2525,0.2527,0.2522,0.2524,0.2527,0.2523,0.2528,0.2528,0.2527,0.2503,0.25,0.2531,0.2531,0.2531,0.2531,0.2531,0.2531,0.254,0.2548,0.2543,0.255,0.2548,0.2552,0.2552,0.2551,0.255,0.2554,0.2556,0.2553,0.255,0.2551,0.2553,0.2551,0.2552,0.2558,0.2556,0.2533,0.2529,0.2526,0.2524,0.2559,0.2559,0.258,0.258,0.258]},{"header":{"parameterUnit":"m.s-1","parameterCategory":1,"la1":30.2991,"la2":30.254,"lo1":-89.0895,"lo2":-89.0444,"dy":0.0017,"dx":0.0017,"nx":28,"ny":28,"refTime":"2024-05-12T03:00:00:Z","depth":0,"parameterNumber":3,"parameterNumberName":"V-component_of_WINDS"},"data":[0,0,0,0,0,0,0,0,0,0,0,0,0,0,0,0,0,0,0,0,0,0,0,0,0,0,0,0,0,0,0,0,0,0,0,0,0,0,0,0,0,0,0,0,0,0,0,0,0,0,0,0,0,0,0,0,0,0,6.7663,6.7664,0,6.7749,6.775,6.7751,6.7724,6.7722,6.772,6.7719,6.7797,6.78,6.7804,0,0,0,0,0,0,0,0,0,0,0,0,0,6.7468,6.7472,6.7663,6.7664,6.7665,6.7749,6.775,6.7751,6.7724,6.7722,6.772,6.7718,6.7795,6.78,6.7804,0,0,0,0,0,0,0,0,0,0,0,0,0,6.7553,6.7473,6.7663,6.7662,6.7663,6.7749,6.775,6.7751,6.7725,6.7722,6.7719,6.7717,6.7794,6.7799,6.7805,6.7894,0,0,6.7822,6.7825,0,0,0,0,0,0,0,0,6.7548,6.756,6.7661,6.7662,6.7664,6.7723,6.771,6.7799,6.7725,6.7701,6.7718,6.7715,6.7774,6.7781,6.7802,6.7897,6.7901,6.7823,6.7826,6.7828,6.783,0,0,0,0,0,0,0,6.7542,6.7556,6.7697,6.7663,6.7664,6.7655,6.7664,6.7726,6.7751,6.7703,6.7701,6.7712,6.7774,6.7797,6.7804,6.7902,6.7822,6.7827,6.7831,6.7833,6.8075,6.8078,0,0,0,0,0,0,6.7537,6.7551,6.7694,6.7699,6.7598,6.7661,6.7671,6.7707,6.775,6.7755,6.7714,6.7711,6.7789,6.7798,6.7807,6.7915,6.7828,6.7834,6.7837,6.8072,6.8075,6.8079,0,0,0,0,0,0,6.7533,6.755,6.7691,6.7625,6.7642,6.7667,6.7707,6.771,6.7733,6.7759,6.7762,6.7734,6.7787,6.7799,6.7873,6.7917,6.7836,6.7841,6.8068,6.8073,6.8077,6.813,0,0,0,0,0,0,6.7527,6.7549,6.7584,6.7626,6.7646,6.7758,6.771,6.7713,6.7744,6.774,6.7779,6.7783,6.7786,6.7865,6.7879,6.7923,6.7846,6.8064,6.807,6.8076,6.8125,6.8136,6.8146,0,0,0,0,0,6.752,6.7593,6.7586,6.7603,6.7692,6.7761,6.7772,6.7777,6.7748,6.7783,6.78,6.7781,6.791,6.7873,6.7888,6.7935,6.8061,6.8069,6.8075,6.812,6.8134,6.8145,0,0,0,0,0,0,6.7551,6.7598,6.7591,6.768,6.7718,6.7756,6.78,6.7791,6.7834,6.7828,6.783,6.7839,6.7915,6.7932,6.789,6.8024,6.7981,6.7991,6.801,6.8023,6.8034,6.8027,6.785,0,0,0,0,0,6.7569,6.7624,6.7661,6.7736,6.7756,6.7775,6.7805,6.7807,6.7843,6.7858,6.788,6.7914,6.7962,6.7993,6.8039,6.8127,6.8135,6.8167,6.8177,6.8186,6.8194,6.8243,6.8258,6.8101,6.8101,6.8101,0,0,6.7605,6.7638,6.7672,6.7743,6.7772,6.7827,6.7788,6.7847,6.7887,6.7865,6.7939,6.7956,6.7994,6.8076,6.8113,6.8093,6.824,6.8195,6.8201,6.8205,6.8252,6.8266,6.828,6.8106,6.8105,6.8104,0,0,6.7699,6.773,6.7797,6.7828,6.7873,6.7886,6.7902,6.7944,6.7956,6.803,6.8015,6.8061,6.8144,6.8173,6.8198,6.8306,6.829,6.832,6.8375,6.8423,6.8435,6.8446,6.8485,6.8499,6.8329,6.8329,6.8329,0,6.7737,6.7822,6.7831,6.7893,6.7925,6.7912,6.7979,6.8007,6.8064,6.8085,6.8062,6.8167,6.8191,6.8281,6.8308,6.8328,6.8346,6.8315,6.8433,6.8444,6.8454,6.8491,6.8506,6.8332,6.8332,6.8332,6.8331,0,6.7867,6.7926,6.7974,6.8035,6.8072,6.8135,6.8152,6.8188,6.8186,6.8201,6.8277,6.8306,6.8358,6.838,6.8377,6.8469,6.8455,6.8433,6.839,6.8473,6.8507,6.8522,6.8337,6.8336,6.8335,6.8334,0,0,6.798,6.8048,6.8065,6.8093,6.8144,6.8189,6.8252,6.8307,6.8338,6.8377,6.8429,6.8502,6.8482,6.8511,6.8511,6.8553,6.8638,6.8526,6.8527,6.8546,6.8741,6.8758,6.8774,6.8629,6.8631,6.8634,6.8738,0,6.8079,6.8194,6.8205,6.8307,6.8362,6.8352,6.8406,6.8442,6.8458,6.8505,6.8521,6.8573,6.8543,6.8561,6.8602,6.8619,6.8677,6.8612,6.8675,6.8677,6.8666,6.8792,6.881,6.8907,6.8752,6.8754,6.8756,0,6.8209,6.8258,6.8367,6.8413,6.8436,6.8486,6.8538,6.8583,6.8624,6.8632,6.8666,6.8662,6.8725,6.8681,6.8767,6.8722,6.8749,6.8761,6.8765,6.8771,6.8721,6.8801,6.8938,6.8953,6.8777,6.8776,6.8774,0,6.8282,6.8374,6.8452,6.8476,6.8531,6.8566,6.859,6.8628,6.8661,6.8706,6.8727,6.8777,6.8804,6.8842,6.8851,6.8818,6.8937,6.8893,6.8944,6.8944,6.8969,6.8967,6.9112,6.8987,6.8986,6.8986,6.8986,0,6.839,6.8457,6.8486,6.8533,6.8608,6.8619,6.8691,6.8713,6.8747,6.8797,6.879,6.8836,6.8845,6.8893,6.89,6.897,6.8982,6.8989,6.899,6.899,6.8989,6.9007,6.9,6.899,6.8989,6.8988,6.8988,0,6.8483,6.8505,6.859,6.8637,6.865,6.8703,6.8742,6.8786,6.8803,6.8866,6.8881,6.8906,6.8962,6.8975,6.904,6.9045,6.9128,6.9122,6.9116,6.9115,6.9166,6.9161,6.9327,6.9349,6.9209,6.9211,6.9212,0,6.8551,6.8603,6.8658,6.8693,6.872,6.8776,6.8811,6.8824,6.886,6.8912,6.895,6.9006,6.9052,6.9141,6.9163,6.9213,6.9208,6.9263,6.9215,6.9214,6.9209,6.9206,6.9211,6.9272,6.9273,6.9274,6.9275,0,6.8669,6.8679,6.8732,6.879,6.8833,6.8878,6.8921,6.8949,6.8967,6.9008,6.9068,6.9104,6.9173,6.9228,6.928,6.9301,6.9291,6.9291,6.9305,6.9305,6.9299,6.9303,6.9141,6.9286,6.9285,6.9284,6.9284,6.9283,6.8752,6.8799,6.8846,6.8905,6.894,6.8981,6.9026,6.905,6.9102,6.9162,6.9165,6.923,6.9269,6.9338,6.9363,6.9412,6.9394,6.9415,6.942,6.9425,6.943,6.9293,6.9421,6.942,6.942,6.942,6.942,0,6.887,6.8901,6.8956,6.9019,6.9066,6.9057,6.9104,6.9143,6.9202,6.9241,6.9288,6.9357,6.9411,6.9438,6.9492,6.9526,6.9523,6.9539,6.9536,6.9542,6.9442,6.9425,6.9541,6.9541,6.9541,6.9541,6.9541,6.9541,6.8937,6.9017,6.9032,6.9128,6.9157,6.9224,6.9252,6.9289,6.9321,6.94,6.9446,6.9466,6.95,6.9556,6.9605,6.9612,6.9631,6.9651,6.9655,6.9561,6.9548,6.9537,6.952,6.9655,6.9655,6.975,6.9751,6.9752]}]]